Aérodrome :
LOGIN :

S'inscrire | Disclaimer

   EN    FR    IT 

 










Légende :    VFR   VFR Marginal   IFR   IFR Intensif   IFR Très Intensif
Visi : 
Plafond : 
>= 8 km
>= 3000ft
5 à 8 km
1000 à 3000 ft
1500m à 5 km
500 à 1000 ft
800 à 1500m
200 à 500 ft
< 800m
< 200 ft
Symboles :   Orages  Brouillard  Fortes neiges  Fortes précipitations  Vent > 20 kt
SIGMETs :   Divers  Orages  Givrage  Turbulence  Onde Orograph.  Cendres Volcan.







- Altitude de l'aérodrome : 1106 ft
- Voir les cartes d'approche


LFSO - Nancy / Ochey

DERNIER METAR :
  • 192100Z AUTO 27003KT CAVOK 17/09 Q1025 NOSIG

METARs EXPIRÉS :
  • 192030Z AUTO 08003KT CAVOK 18/08 Q1025 NOSIG
  • 192000Z AUTO 07004KT CAVOK 20/09 Q1025 NOSIG
  • 191930Z AUTO 07005KT CAVOK 21/09 Q1025 NOSIG
  • 191900Z AUTO 08005KT CAVOK 21/09 Q1025 NOSIG
  • 191830Z AUTO 08004KT CAVOK 22/10 Q1025 NOSIG

TAF TAF LFSO
Valide du 19 à 21h jusqu'au 20 à 21h UTC


192000Z 1921/2021 VRB02KT CAVOK
Pas de NOTAMs connus pour ce terrain.



MET'MAP, la Météo Aéronautique d'un coup d'oeil ! - Copyright ORBIFLY Décembre 2007 - Disclaimer

ORBIFLY MET'MAP TEAM :

Programmation & Développement : Alexandra Zaïnal
Conception & Développement : Baudouin d'Aumeries
Co-Programmation & Développement : Marc-Olivier Méhu
Soutien technique & logistique : Manuel Goepfert

Contact : metmap@orbifly.com




SOURCES & CREDITS :

   NOAA